Date,TemperatureHighF,TemperatureAvgF,TemperatureLowF,DewpointHighF,DewpointAvgF,DewpointLowF,HumidityHigh,HumidityAvg,HumidityLow,PressureMaxIn,PressureMinIn,WindSpeedMaxMPH,WindSpeedAvgMPH,GustSpeedMaxMPH,PrecipitationSumIn
2013-1-1,49.0,30.2,15.0,34.6,23.2,15.0,100,80,38,30.41,30.17,7,3,10,0.00
2013-1-2,56.0,33.2,17.0,28.2,22.1,17.0,100,71,29,30.33,30.07,12,4,13,0.00
2013-1-3,49.0,34.4,22.0,32.8,25.7,18.5,98,73,38,30.35,30.16,12,6,16,0.00
2013-1-4,50.0,33.9,21.0,30.0,27.0,21.0,100,80,41,30.47,30.25,8,3,13,0.00
2013-1-5,58.0,32.6,16.0,29.8,19.4,13.4,100,68,17,30.52,30.25,8,4,12,0.00
2013-1-6,56.0,35.0,17.0,27.5,21.2,16.1,100,64,27,30.46,30.13,9,4,12,0.00
2013-1-7,61.0,40.9,19.0,30.5,24.0,14.3,100,58,19,30.19,29.84,10,5,23,0.00
2013-1-8,63.0,44.8,29.0,34.7,23.8,13.8,88,49,16,30.27,29.97,16,6,27,0.00
2013-1-9,65.0,40.7,20.0,28.0,18.5,12.3,91,49,14,30.42,30.14,7,3,12,0.00
2013-1-10,63.3,42.8,18.0,30.8,22.9,16.9,100,53,20,30.31,29.93,18,5,24,0.00
2013-1-11,52.0,38.4,18.0,29.1,16.2,8.6,77,43,23,30.19,29.95,16,7,25,0.00
2013-1-12,41.0,23.5,7.0,18.7,8.1,0.6,100,59,21,30.30,30.08,15,4,23,0.00
2013-1-13,46.0,24.1,4.0,12.2,6.2,1.2,100,55,20,30.35,30.01,7,3,15,0.00
2013-1-14,41.0,23.1,5.0,12.3,4.5,-3.5,97,52,16,30.33,30.11,12,4,17,0.00
2013-1-15,40.0,21.5,3.0,10.0,2.2,-4.7,97,50,16,30.54,30.30,13,5,21,0.00
2013-1-16,56.0,31.7,10.0,8.9,3.5,-0.8,66,35,14,30.55,30.25,9,5,13,0.00
2013-1-17,62.8,37.6,17.0,15.9,10.7,4.3,63,37,15,30.49,30.21,12,5,15,0.00
2013-1-18,65.0,39.6,20.9,22.9,16.3,11.5,79,44,17,30.46,30.17,9,5,13,0.00
2013-1-19,71.0,44.1,23.0,25.8,19.2,13.9,69,42,15,30.42,30.15,9,5,13,0.00
2013-1-20,72.0,47.2,29.0,32.4,23.5,17.0,65,43,21,30.40,30.06,9,5,13,0.00
2013-1-21,73.0,50.0,32.0,31.9,26.0,22.8,71,44,20,30.32,30.07,9,5,12,0.00
2013-1-22,74.9,49.6,28.0,29.5,25.2,19.6,82,44,18,30.41,30.13,8,4,12,0.00
2013-1-23,74.0,48.5,30.0,30.9,25.1,19.7,72,45,19,30.43,30.17,9,4,12,0.00
2013-1-24,70.0,52.5,35.0,41.5,33.3,23.8,69,50,26,30.41,30.19,10,4,15,0.00
2013-1-25,73.0,57.0,43.0,53.7,41.7,38.5,99,60,32,30.35,30.09,7,3,12,0.03
2013-1-26,66.0,55.0,46.0,59.9,50.2,40.4,100,86,44,30.17,29.99,16,6,26,0.36
2013-1-27,63.0,53.2,46.6,54.0,46.9,42.1,100,81,52,30.16,30.02,10,4,16,0.13
2013-1-28,57.0,47.3,34.5,46.2,40.6,33.2,98,78,47,30.15,29.97,23,9,28,0.03
2013-1-29,45.0,36.6,26.0,34.5,24.5,16.7,100,65,33,30.34,30.11,17,9,29,0.01
2013-1-30,52.0,34.7,19.0,32.8,23.0,14.7,100,70,25,30.47,30.25,9,3,14,0.00
2013-1-31,57.0,38.5,24.0,32.0,26.6,23.3,100,68,30,30.43,30.19,9,6,12,0.00
2013-2-1,68.0,42.8,24.0,33.0,26.7,23.3,100,63,19,30.41,30.16,9,4,12,0.00
2013-2-2,72.0,47.3,28.0,32.1,26.2,19.4,95,53,15,30.44,30.17,10,6,13,0.00
2013-2-3,63.0,48.6,38.0,45.9,33.0,22.7,98,60,22,30.33,30.07,12,4,16,0.01
2013-2-4,65.0,48.7,35.0,45.3,38.8,34.9,100,74,35,30.21,30.01,7,2,10,0.00
2013-2-5,68.0,49.7,32.0,43.8,35.6,31.7,100,65,27,30.23,29.98,9,3,13,0.00
2013-2-6,67.0,47.8,28.0,45.9,33.3,28.0,100,65,24,30.22,29.96,12,4,20,0.00
2013-2-7,66.0,46.1,30.0,41.7,31.4,25.6,100,64,24,30.29,30.06,9,2,13,0.00
2013-2-8,66.0,47.3,27.0,31.4,21.0,9.5,96,46,12,30.20,29.89,15,6,26,0.00
2013-2-9,49.0,40.5,24.0,35.3,23.8,17.0,100,53,30,30.22,29.91,16,8,27,0.00
2013-2-10,56.0,35.8,16.0,29.5,15.8,3.2,100,55,12,30.25,29.95,13,4,20,0.00
2013-2-11,52.0,33.2,13.0,33.7,19.9,8.0,100,65,25,30.26,30.00,16,6,24,0.00
2013-2-12,49.0,31.6,14.0,34.7,19.2,3.3,100,69,15,30.40,30.19,12,4,15,0.01
2013-2-13,60.0,35.4,14.0,24.3,16.0,9.7,100,57,14,30.38,30.09,12,4,15,0.00
2013-2-14,64.0,40.5,17.0,23.8,18.1,14.0,97,49,15,30.35,30.05,10,5,15,0.00
2013-2-15,64.4,45.7,25.0,24.2,16.1,-0.1,69,36,8,30.49,30.19,15,7,20,0.00
2013-2-16,70.0,43.4,19.0,22.4,13.3,7.4,81,37,9,30.53,30.12,8,4,12,0.00
2013-2-17,71.0,47.0,19.0,17.6,11.1,3.7,75,31,9,30.30,29.87,17,6,28,0.00
2013-2-18,67.0,48.1,24.0,17.6,12.3,8.4,56,26,13,30.29,30.00,8,3,12,0.00
2013-2-19,60.0,43.3,25.0,41.0,27.9,11.6,91,57,26,30.20,29.91,18,5,30,0.00
2013-2-20,50.0,36.5,22.0,37.7,28.0,21.9,100,75,43,30.13,29.77,20,7,27,0.04
2013-2-21,50.0,33.7,16.0,34.3,28.7,16.0,100,84,50,30.25,30.01,9,4,13,0.12
2013-2-22,55.0,40.3,26.0,40.1,30.3,25.0,100,72,36,30.29,30.07,12,4,17,0.00
2013-2-23,65.0,42.3,21.0,31.3,25.5,21.0,100,60,22,30.31,29.88,9,4,14,0.00
2013-2-24,50.0,36.1,17.0,26.0,18.0,1.0,100,55,13,30.29,29.91,23,8,35,0.00
2013-2-25,58.0,34.8,14.0,26.2,16.1,11.7,100,57,17,30.36,30.08,10,3,13,0.00
2013-2-26,64.0,40.2,15.0,23.9,14.4,3.9,100,47,9,30.26,29.94,14,6,22,0.00
2013-2-27,60.0,41.0,18.0,17.1,10.3,5.0,80,34,12,30.38,30.13,10,5,15,0.00
2013-2-28,62.0,42.7,21.0,11.8,6.3,-0.9,62,27,8,30.47,30.23,14,8,20,0.00
2013-3-1,70.0,46.4,24.0,19.8,14.5,6.3,61,32,14,30.50,30.20,17,8,26,0.00
2013-3-2,77.0,51.0,29.0,25.2,18.6,12.3,67,35,9,30.50,30.17,8,4,12,0.00
2013-3-3,79.0,53.7,24.6,24.9,15.8,2.2,78,31,5,30.36,29.99,14,5,25,0.00
2013-3-4,71.7,57.1,36.0,34.4,24.6,12.1,57,30,13,30.30,29.92,20,8,35,0.00
2013-3-5,74.0,53.7,30.0,32.3,24.7,20.0,77,38,13,30.35,30.05,12,5,20,0.00
2013-3-6,78.8,61.1,42.0,31.0,24.0,13.0,53,27,9,30.21,29.94,16,6,29,0.00
2013-3-7,73.1,54.7,32.9,30.2,23.8,17.2,67,35,12,30.20,29.95,14,5,22,0.00
2013-3-8,60.0,48.0,39.0,49.3,37.6,21.6,95,70,42,30.14,29.89,23,9,37,0.30
2013-3-9,50.0,41.8,34.0,37.2,32.9,28.4,96,72,48,30.21,30.06,14,8,22,0.00
2013-3-10,60.0,45.5,33.0,39.7,32.4,21.2,100,66,23,30.31,30.11,14,5,21,0.00
2013-3-11,71.0,47.6,25.0,35.6,28.0,19.3,100,57,16,30.38,30.05,7,3,15,0.00
2013-3-12,77.0,52.4,27.0,32.9,26.5,14.7,97,47,10,30.32,30.05,7,4,10,0.00
2013-3-13,80.0,58.3,37.0,30.1,23.6,15.3,73,34,9,30.36,30.09,10,5,16,0.00
2013-3-14,84.0,60.7,38.0,29.0,21.1,12.2,60,28,7,30.34,30.08,10,5,15,0.00
2013-3-15,85.0,62.0,34.0,28.9,20.0,5.7,67,28,5,30.33,29.95,13,5,31,0.00
2013-3-16,82.0,61.9,36.7,28.7,18.5,7.4,61,25,7,30.18,29.85,17,6,26,0.00
2013-3-17,78.0,62.0,37.0,24.9,17.8,8.6,34,19,11,30.13,29.89,17,7,28,0.00
2013-3-18,77.0,59.3,38.0,32.8,22.8,15.4,54,27,10,30.22,29.96,14,4,20,0.00
2013-3-19,74.0,57.4,39.0,30.1,24.8,20.9,56,31,15,30.24,30.01,16,5,25,0.00
2013-3-20,79.0,59.9,38.0,31.1,25.9,20.5,63,32,12,30.28,29.96,12,5,18,0.00
2013-3-21,78.0,59.5,39.0,33.3,26.4,18.4,61,32,11,30.07,29.83,13,4,23,0.00
2013-3-22,75.0,61.5,48.0,32.9,26.2,16.2,45,28,11,29.99,29.77,17,7,31,0.00
2013-3-23,70.0,55.8,39.0,29.5,19.8,9.3,58,28,10,30.20,29.97,20,8,32,0.00
2013-3-24,71.0,53.2,29.0,21.4,11.6,6.4,59,23,9,30.24,29.92,15,5,26,0.00
2013-3-25,73.0,53.2,32.0,19.7,13.4,6.1,42,23,11,30.23,29.99,13,4,17,0.00
2013-3-26,79.0,58.1,32.0,19.0,15.1,12.3,51,23,9,30.23,29.92,10,5,20,0.00
2013-3-27,78.0,60.1,36.0,24.8,18.3,10.4,44,22,8,30.21,29.97,14,5,20,0.00
2013-3-28,79.0,60.7,37.0,33.2,23.8,17.0,59,28,10,30.27,30.01,14,4,20,0.00
2013-3-29,80.0,63.4,43.0,25.9,22.7,19.0,43,23,11,30.30,30.03,13,5,17,0.00
2013-3-30,78.0,62.1,42.0,27.6,22.3,15.4,46,24,10,30.28,30.01,17,4,22,0.00
2013-3-31,80.0,61.2,37.0,31.1,24.5,19.1,57,28,12,30.26,29.97,12,4,25,0.00
2013-4-1,82.0,61.0,38.0,31.7,24.1,15.9,53,28,9,30.23,29.92,18,5,26,0.00
2013-4-2,75.0,57.8,35.0,29.4,19.6,10.8,64,27,9,30.17,29.91,16,6,23,0.00
2013-4-3,77.0,56.9,34.0,26.1,20.0,13.2,46,26,11,30.25,30.00,12,4,18,0.00
2013-4-4,81.0,61.6,37.0,29.6,19.3,9.6,52,23,7,30.32,30.01,13,4,17,0.00
2013-4-5,83.3,65.5,42.0,27.6,20.4,14.4,39,20,8,30.21,29.91,17,6,26,0.00
2013-4-6,81.0,65.4,45.0,33.7,27.7,24.0,48,26,13,30.17,29.90,16,5,23,0.00
2013-4-7,81.0,63.1,41.0,33.6,25.6,20.7,56,27,11,30.13,29.83,15,5,26,0.00
2013-4-8,78.0,62.7,50.0,37.0,31.9,22.0,55,33,15,29.98,29.58,22,10,33,0.00
2013-4-9,61.0,50.0,40.0,41.8,30.1,21.0,96,49,23,30.09,29.73,28,10,41,0.04
2013-4-10,64.0,49.5,31.0,34.3,26.0,20.4,92,46,21,30.19,29.96,16,7,23,0.00
2013-4-11,77.0,54.5,27.0,28.9,22.3,12.3,76,35,9,30.21,29.84,13,4,20,0.00
2013-4-12,78.0,57.5,35.0,26.6,22.1,17.8,53,29,12,30.07,29.82,10,3,27,0.00
2013-4-13,79.0,63.3,37.0,28.4,22.0,17.6,52,23,11,30.09,29.82,13,6,22,0.00
2013-4-14,79.0,65.8,51.0,34.5,27.9,17.0,43,26,10,30.01,29.79,15,8,27,0.00
2013-4-15,80.0,64.8,46.0,36.1,30.4,23.9,56,30,13,30.01,29.80,16,8,26,0.00
2013-4-16,80.0,66.0,50.0,39.5,27.6,12.6,55,28,8,30.02,29.81,18,8,31,0.00
2013-4-17,68.0,57.3,39.0,40.0,25.9,10.1,55,32,18,30.19,29.89,24,11,41,0.00
2013-4-18,66.0,48.7,26.0,16.0,9.3,1.0,51,23,8,30.31,30.08,14,7,31,0.00
2013-4-19,75.0,55.9,39.0,8.9,4.0,-1.9,22,13,6,30.33,30.04,12,5,17,0.00
2013-4-20,80.0,58.8,29.0,16.0,8.9,-0.1,43,17,6,30.21,29.93,15,7,26,0.00
2013-4-21,85.0,63.0,36.0,21.2,13.5,6.8,39,17,6,30.29,29.97,12,4,20,0.00
2013-4-22,86.9,67.0,37.0,22.3,14.6,7.6,47,16,6,30.24,29.87,14,6,26,0.00
2013-4-23,83.0,65.8,43.0,22.5,16.1,10.9,29,16,8,30.11,29.87,16,6,25,0.00
2013-4-24,85.0,66.5,40.0,26.5,18.9,12.8,48,19,9,30.19,29.89,13,4,21,0.00
2013-4-25,82.0,68.2,53.0,31.9,19.4,10.3,31,17,7,30.21,29.92,20,8,35,0.00
2013-4-26,83.0,61.6,35.0,30.2,16.8,5.6,63,24,6,30.32,30.05,10,4,20,0.00
2013-4-27,85.2,64.6,41.0,29.0,17.7,9.8,43,19,6,30.30,29.97,13,4,17,0.00
2013-4-28,87.0,68.2,44.0,29.9,16.0,9.1,40,17,6,30.17,29.87,12,4,17,0.00
2013-4-29,90.0,69.8,42.0,22.5,13.0,7.9,35,13,5,30.11,29.79,12,5,25,0.00
2013-4-30,88.0,70.5,44.0,23.8,17.7,12.9,32,15,7,30.08,29.80,15,5,23,0.00
2013-5-1,85.0,68.0,45.0,25.7,18.6,12.6,35,17,7,30.21,29.96,12,4,26,0.00
2013-5-2,83.0,65.8,44.0,26.3,21.0,13.4,42,19,11,30.31,30.10,16,5,23,0.00
2013-5-3,82.0,63.0,43.0,23.3,17.4,12.3,40,20,8,30.35,29.96,8,4,20,0.00
2013-5-4,85.0,69.1,45.0,32.8,22.7,13.4,33,19,9,30.08,29.82,14,6,22,0.00
2013-5-5,85.0,71.4,57.9,37.0,29.6,20.0,39,23,10,30.10,29.90,17,8,25,0.00
2013-5-6,80.0,66.4,48.0,40.7,34.3,28.0,65,33,16,30.17,29.96,16,6,25,0.00
2013-5-7,78.8,64.6,46.0,39.3,30.4,21.1,56,31,12,30.20,29.95,15,6,26,0.00
2013-5-8,79.0,65.6,47.0,34.8,29.0,22.4,53,28,13,30.19,29.97,16,6,24,0.00
2013-5-9,80.0,65.1,43.7,38.7,29.1,20.7,57,29,11,30.20,29.95,14,4,23,0.00
2013-5-10,78.7,62.1,43.0,37.7,31.1,24.2,55,33,17,30.25,30.03,20,5,26,0.00
2013-5-11,80.6,63.8,41.6,38.7,34.6,30.3,67,37,18,30.32,30.10,13,4,23,0.00
2013-5-12,82.0,66.3,45.0,40.7,31.1,23.9,69,31,13,30.36,30.07,16,6,25,0.00
2013-5-13,86.0,69.0,48.0,35.2,24.6,12.9,48,22,8,30.29,30.03,15,4,25,0.00
2013-5-14,88.0,71.5,46.3,38.9,32.0,26.0,56,26,11,30.24,29.95,20,4,38,0.00
2013-5-15,89.0,76.2,57.3,35.3,32.1,27.7,39,21,11,30.18,29.94,15,8,31,0.00
2013-5-16,91.0,74.6,51.0,33.7,25.8,16.1,41,19,8,30.17,29.88,14,5,21,0.00
2013-5-17,88.0,72.6,46.2,32.0,23.2,11.4,42,18,6,30.16,29.90,13,5,22,0.00
2013-5-18,85.0,71.2,49.0,35.2,25.8,13.4,45,21,8,30.15,29.91,15,6,26,0.00
2013-5-19,85.0,67.0,45.0,36.3,29.3,16.1,57,28,9,30.16,29.91,12,4,21,0.00
2013-5-21,88.7,77.5,57.0,28.1,17.0,10.2,24,11,6,30.09,29.86,13,5,28,0.00
2013-5-22,92.0,72.5,47.0,25.1,18.5,11.1,29,14,6,30.08,29.79,12,4,17,0.00
2013-5-23,92.0,73.0,47.0,30.7,19.4,9.3,37,16,5,30.10,29.85,13,5,25,0.00
2013-5-24,93.0,72.6,47.0,38.6,20.0,5.7,37,17,4,30.18,29.91,10,4,20,0.00
2013-5-25,91.0,70.7,45.0,28.2,19.4,12.5,51,17,6,30.21,29.94,14,5,23,0.00
2013-5-26,90.0,72.1,45.0,29.6,17.0,9.3,39,15,5,30.21,29.94,15,5,28,0.00
2013-5-27,93.0,70.7,45.0,26.0,17.0,5.0,42,16,4,30.16,29.81,12,4,20,0.00
2013-5-28,89.0,71.4,45.0,30.5,17.7,8.6,37,15,5,30.03,29.73,16,6,23,0.00
2013-5-29,87.0,74.0,50.0,34.5,28.3,23.9,38,20,11,29.98,29.77,14,6,23,0.00
2013-5-30,91.0,75.8,53.0,51.0,34.2,26.1,53,25,10,30.06,29.84,12,5,22,0.00
2013-5-31,93.0,77.7,57.0,49.6,37.3,29.2,52,26,11,30.09,29.85,12,5,20,0.00
2013-6-1,98.0,79.9,52.0,38.6,29.9,21.6,54,19,7,30.10,29.82,10,3,22,0.00
2013-6-2,99.6,82.0,57.0,37.0,30.8,24.5,44,18,8,30.05,29.78,15,5,23,0.00
2013-6-3,95.5,79.1,55.0,35.9,26.7,14.8,39,18,6,30.10,29.85,14,4,23,0.00
2013-6-4,95.0,78.1,55.0,38.6,31.5,24.3,41,20,9,30.11,29.87,13,5,23,0.00
2013-6-5,95.0,77.1,54.0,38.0,25.9,12.8,49,19,5,30.15,29.86,13,5,24,0.00
2013-6-6,97.0,77.5,49.0,30.1,17.7,7.1,38,14,4,30.11,29.82,8,3,15,0.00
2013-6-7,101.3,79.6,55.0,33.5,28.3,22.0,37,18,6,30.08,29.77,15,4,21,0.00
2013-6-8,97.0,81.5,55.0,36.3,27.7,20.6,43,17,7,30.06,29.84,15,7,25,0.00
2013-6-9,98.0,81.2,60.0,36.5,27.1,19.8,28,16,7,30.11,29.88,13,5,20,0.00
2013-6-10,101.0,82.0,56.0,33.5,26.0,19.8,36,15,7,30.15,29.87,10,5,16,0.00
2013-6-11,102.0,82.3,57.0,33.1,26.2,20.7,39,15,6,30.15,29.86,14,7,20,0.00
2013-6-12,103.1,83.2,58.0,36.1,28.8,23.1,33,16,7,30.17,29.85,13,5,20,0.00
2013-6-13,99.0,84.6,66.0,46.6,38.3,31.0,44,21,11,30.13,29.87,15,6,22,0.00
2013-6-14,94.0,80.4,65.0,53.5,45.0,36.4,56,31,17,30.09,29.87,14,4,22,0.00
2013-6-15,96.0,75.5,65.0,66.3,53.6,43.4,89,51,19,30.14,29.96,16,4,25,0.19
2013-6-16,95.0,77.3,59.0,65.7,53.7,35.2,100,53,20,30.17,29.93,10,4,16,0.06
2013-6-17,97.0,79.1,56.0,52.5,35.0,22.3,71,28,8,30.17,29.89,16,5,25,0.00
2013-6-18,98.0,78.9,52.0,41.3,26.1,8.5,54,20,4,30.15,29.85,14,4,20,0.00
2013-6-19,99.0,79.7,54.0,36.6,26.9,17.0,40,17,6,30.08,29.79,16,6,29,0.00
2013-6-20,97.0,80.2,52.0,34.5,25.1,7.1,36,16,4,30.11,29.83,16,5,25,0.00
2013-6-21,98.0,80.0,57.0,41.9,31.7,17.8,43,21,6,30.12,29.89,18,6,37,0.00
2013-6-22,96.0,79.2,56.0,41.3,28.7,20.8,49,19,7,30.11,29.85,17,6,26,0.00
2013-6-23,94.2,77.6,53.0,36.1,29.9,24.6,36,19,9,30.13,29.83,18,6,28,0.00
2013-6-24,94.0,78.1,60.0,39.1,34.5,29.5,39,22,12,30.09,29.87,17,6,25,0.00
2013-6-25,96.0,78.3,56.0,41.9,28.9,20.0,50,20,7,30.17,29.93,16,4,22,0.00
2013-6-26,96.4,79.3,54.0,33.5,25.6,17.6,36,16,8,30.24,29.99,12,5,18,0.00
2013-6-27,102.0,80.6,57.0,35.7,27.7,19.2,35,16,7,30.26,29.94,15,6,24,0.00
2013-6-28,103.0,83.5,62.0,37.4,31.9,26.6,33,17,8,30.18,29.94,13,4,23,0.00
2013-6-29,103.0,86.0,66.0,42.0,37.0,32.2,38,19,10,30.15,29.86,13,5,20,0.00
2013-6-30,103.0,85.8,73.0,58.3,43.8,37.0,58,26,11,30.10,29.83,18,7,29,0.00
2013-7-1,99.1,83.7,68.0,60.9,52.6,43.3,78,38,15,30.22,29.88,13,5,23,0.07
2013-7-2,93.0,76.6,64.0,64.0,58.0,48.1,95,59,23,30.27,29.96,18,8,28,0.38
2013-7-3,93.0,76.7,61.0,64.8,58.9,48.4,100,61,24,30.17,29.85,24,5,44,0.04
2013-7-4,97.0,80.6,66.0,65.7,58.2,48.4,93,53,21,30.10,29.83,20,6,31,0.00
2013-7-5,94.0,76.0,67.0,68.2,61.5,53.2,92,65,27,30.09,29.90,16,4,26,0.12
2013-7-6,98.0,78.2,62.0,70.1,60.7,51.2,100,63,23,30.07,29.81,16,4,22,0.00
2013-7-7,100.0,81.7,65.0,63.8,57.0,47.4,87,48,17,30.10,29.82,18,6,29,0.00
2013-7-8,96.0,80.3,71.0,64.3,60.0,54.2,76,53,26,30.14,29.96,13,5,17,0.00
2013-7-9,96.0,78.3,66.0,69.7,63.2,52.2,100,67,24,30.21,29.94,17,6,26,0.71
2013-7-10,92.0,75.6,66.0,70.1,66.8,60.6,100,78,39,30.20,29.96,9,5,17,0.39
2013-7-11,89.0,74.9,65.0,70.1,65.7,59.8,100,76,40,30.18,29.98,12,4,18,0.00
2013-7-12,89.0,76.2,63.0,68.6,63.3,56.2,100,69,33,30.18,29.95,14,6,20,0.29
2013-7-13,95.0,79.3,67.0,68.2,62.4,51.9,94,62,27,30.15,29.91,14,5,24,0.01
2013-7-14,96.0,80.7,69.0,68.9,62.0,53.4,93,58,26,30.16,29.88,14,4,20,0.00
2013-7-15,94.0,75.5,65.0,67.4,64.0,57.0,100,71,30,30.16,29.91,18,4,25,0.99
2013-7-16,79.9,67.6,65.0,68.4,66.0,64.8,100,95,65,30.22,30.10,12,4,17,0.81
2013-7-17,89.0,74.2,64.0,76.0,61.9,52.7,100,71,31,30.25,30.03,13,3,29,0.00
2013-7-18,82.9,72.4,62.0,65.6,60.4,57.0,97,68,47,30.23,30.04,12,4,17,0.00
2013-7-19,79.0,72.1,66.0,67.3,64.6,61.5,98,78,57,30.15,29.99,12,4,16,0.00
2013-7-20,84.0,71.1,62.0,70.8,65.6,61.5,100,85,49,30.10,29.97,9,2,17,0.09
2013-7-21,88.0,74.0,63.0,70.1,64.5,55.9,100,77,36,30.14,29.95,14,4,23,0.40
2013-7-22,87.0,73.6,66.0,76.0,67.1,60.1,100,84,43,30.15,30.00,13,2,22,0.20
2013-7-23,88.0,72.2,65.0,75.1,66.8,60.2,100,86,40,30.19,29.97,16,4,23,0.87
2013-7-24,91.0,73.1,64.0,70.5,66.7,63.4,100,83,45,30.15,29.97,10,3,17,0.00
2013-7-25,89.0,75.4,68.0,73.1,67.9,62.5,100,80,44,30.21,30.07,8,2,15,0.00
2013-7-26,90.0,75.6,66.0,72.8,66.8,62.2,100,79,43,30.28,30.08,17,3,28,0.38
2013-7-27,88.0,75.6,67.0,75.0,68.5,62.5,100,82,44,30.18,30.05,15,2,26,0.27
2013-7-28,90.0,75.3,64.0,76.0,64.4,52.6,100,75,29,30.12,29.93,9,3,20,0.01
2013-7-29,91.0,76.0,63.0,69.7,63.4,53.6,100,70,32,30.22,30.03,7,3,12,0.00
2013-7-30,97.0,78.8,62.0,68.8,60.2,51.1,100,59,24,30.28,30.05,8,3,14,0.00
2013-7-31,95.0,79.3,68.0,67.2,62.8,56.8,83,59,28,30.24,30.07,12,3,20,0.00
2013-8-1,79.0,69.5,64.0,73.0,66.2,61.1,100,90,61,30.29,30.09,8,2,13,0.43
2013-8-2,89.0,72.7,63.0,73.6,66.2,59.6,100,83,40,30.19,30.03,9,2,15,0.00
2013-8-3,95.0,77.0,60.1,73.7,64.0,58.0,100,69,33,30.21,29.99,6,2,16,0.00
2013-8-4,93.5,77.4,67.0,68.4,63.3,56.6,98,66,34,30.21,30.00,6,2,12,0.00
2013-8-5,89.0,71.1,63.0,72.6,64.4,57.6,100,82,36,30.28,30.03,12,5,20,0.39
2013-8-6,83.6,68.1,59.0,71.0,65.1,59.0,100,91,55,30.21,30.09,10,2,15,0.29
2013-8-7,86.0,71.1,58.0,73.0,60.4,52.4,100,74,38,30.22,30.04,8,2,15,0.01
2013-8-8,91.0,72.0,55.0,69.2,58.6,48.6,100,70,25,30.20,29.99,7,1,15,0.00
2013-8-9,94.0,73.8,53.0,69.2,56.9,50.0,100,64,24,30.18,29.97,8,2,15,0.00
2013-8-10,94.0,73.9,60.0,68.3,59.4,46.0,97,67,22,30.23,30.01,12,3,20,0.19
2013-8-11,92.0,75.3,63.0,69.2,63.3,59.5,100,70,35,30.22,29.97,8,3,18,0.00
2013-8-12,96.0,76.7,61.0,69.7,62.7,56.0,100,67,29,30.16,29.97,10,3,16,0.00
2013-8-13,98.0,77.7,61.0,67.9,62.4,56.2,100,66,30,30.21,29.97,7,1,16,0.00
2013-8-14,97.0,78.5,66.0,70.0,61.9,55.1,96,60,28,30.20,29.97,8,2,16,0.00
2013-8-15,97.0,78.5,65.0,66.6,60.2,53.7,95,58,25,30.38,29.98,6,2,13,0.00
2013-8-16,97.0,77.5,60.0,70.0,61.4,54.1,100,64,25,30.88,30.01,9,2,16,0.03
2013-8-17,98.0,79.5,60.0,70.2,57.5,45.5,100,56,18,30.87,30.03,9,2,14,0.00
2013-8-18,100.0,79.3,59.0,65.6,55.9,48.1,92,51,18,30.87,30.12,8,3,15,0.08
2013-8-19,98.0,79.9,61.0,63.4,57.4,50.6,99,53,21,30.89,30.17,12,2,18,0.00
2013-8-20,99.0,78.2,65.0,65.8,58.2,50.2,96,56,22,30.88,30.10,12,4,23,0.02
2013-8-21,95.9,75.3,60.0,74.5,61.1,51.7,100,68,24,30.88,30.17,8,2,16,0.02
2013-8-22,94.0,75.7,58.0,67.0,59.1,50.9,100,62,24,30.90,30.07,7,2,14,0.04
2013-8-23,95.0,75.2,58.0,65.4,56.8,49.7,99,60,23,30.78,30.24,12,4,20,0.02
2013-8-24,83.0,69.6,62.0,70.0,63.2,59.0,100,83,47,30.83,30.33,8,3,12,0.03
2013-8-25,90.4,73.7,62.0,68.1,63.6,56.4,100,75,36,30.84,30.31,12,3,17,0.00
2013-8-26,95.0,78.5,63.0,72.5,58.7,48.4,100,58,24,30.84,30.32,9,3,16,0.00
2013-8-27,95.0,78.6,59.0,58.6,54.3,46.8,84,48,20,30.76,30.29,9,3,20,0.00
2013-8-28,89.0,75.7,62.0,62.9,59.2,54.4,89,59,31,30.80,30.13,8,3,17,0.00
2013-8-29,87.0,70.7,65.0,68.8,64.9,61.8,100,84,43,30.89,30.21,9,2,16,1.39
2013-8-30,75.0,68.0,62.0,73.0,66.8,62.0,100,96,80,30.88,30.61,6,2,9,0.01
2013-8-31,94.0,74.3,58.0,73.4,63.1,58.0,100,74,34,30.84,30.18,7,2,14,0.00
2013-9-1,96.0,76.6,60.0,72.5,62.2,51.7,100,69,24,30.80,30.17,7,1,10,0.00
2013-9-2,98.0,78.7,63.8,65.8,61.1,53.9,100,62,24,30.81,30.30,8,2,16,0.00
2013-9-3,90.0,72.9,60.0,68.8,62.2,55.2,100,75,35,30.80,30.28,9,3,17,0.01
2013-9-4,93.0,74.6,58.0,71.5,57.0,46.5,100,63,21,30.82,30.31,12,3,18,0.01
2013-9-5,93.6,73.9,55.0,62.5,56.1,48.8,99,62,24,30.84,30.35,9,2,17,0.00
2013-9-6,93.0,73.9,60.0,72.0,60.3,52.9,98,68,26,30.84,30.31,10,2,18,0.13
2013-9-7,88.0,71.1,64.0,66.6,63.2,58.3,100,80,38,30.80,30.23,12,4,21,0.03
2013-9-8,86.0,68.6,63.0,71.5,65.3,61.7,100,91,47,30.76,30.09,16,3,26,0.55
2013-9-9,76.0,66.4,63.0,73.7,66.0,63.0,100,99,76,30.71,30.01,9,2,16,0.41
2013-9-10,86.0,71.0,61.0,70.3,62.6,56.2,100,79,39,30.81,30.22,7,2,12,0.00
2013-9-11,87.0,70.3,55.0,68.7,59.2,53.3,100,73,33,30.86,30.27,8,2,12,0.00
2013-9-12,91.0,71.2,58.0,66.5,62.1,58.0,100,78,37,30.79,30.17,9,2,20,0.59
2013-9-13,91.0,73.6,61.0,71.7,63.9,58.3,100,76,34,30.76,30.18,7,3,14,0.00
2013-9-14,90.0,74.5,59.0,70.8,62.4,52.7,100,71,29,30.74,30.20,7,2,10,0.00
2013-9-15,93.0,75.6,62.0,65.6,60.4,56.9,97,63,33,30.73,30.26,10,4,16,0.00
2013-9-16,92.0,76.2,61.0,62.9,59.8,56.6,95,61,31,30.77,30.29,7,4,16,0.00
2013-9-17,93.0,75.7,60.0,64.3,59.5,51.4,96,63,25,30.77,30.21,6,2,13,0.00
2013-9-18,93.0,76.1,60.0,69.2,56.8,48.4,98,57,22,30.67,30.11,7,2,13,0.00
2013-9-19,94.0,72.8,55.0,62.0,56.0,49.9,95,62,25,30.68,30.03,9,2,13,0.00
2013-9-20,91.0,71.4,58.0,65.4,58.5,49.4,97,68,33,30.76,30.02,9,3,16,0.00
2013-9-21,89.0,72.0,55.0,64.5,55.6,49.8,100,62,27,30.78,30.16,8,3,15,0.00
2013-9-22,86.0,73.5,59.0,61.9,54.9,45.7,93,55,31,30.62,29.98,14,6,26,0.00
2013-9-23,88.0,65.3,44.0,56.1,44.4,33.0,97,55,16,30.80,30.15,7,2,12,0.00
2013-9-24,90.0,65.8,43.0,50.9,44.4,39.2,95,55,18,30.87,30.18,9,2,14,0.00
2013-9-25,89.0,68.2,44.0,49.6,40.1,33.8,91,43,16,30.75,30.09,12,4,18,0.00
2013-9-26,86.0,70.3,51.0,52.4,41.2,31.7,74,38,20,30.66,29.97,13,5,25,0.00
2013-9-27,78.5,65.8,50.0,56.4,48.3,39.5,89,56,30,30.80,30.12,12,5,20,0.00
2013-9-28,82.4,62.3,43.0,45.1,40.6,36.5,82,50,24,30.89,30.35,8,2,13,0.00
2013-9-29,88.0,64.4,43.0,46.7,41.4,38.9,90,51,18,30.92,30.33,8,2,12,0.00
2013-9-30,87.0,63.9,41.7,47.8,38.2,29.4,91,48,13,30.86,30.17,8,3,15,0.00
2013-10-1,88.0,64.1,41.0,42.1,36.3,31.4,83,44,14,30.83,30.13,9,2,13,0.00
2013-10-2,86.0,64.0,41.0,44.9,39.4,32.2,90,47,16,30.84,30.29,8,2,14,0.00
2013-10-3,85.0,64.8,41.0,48.7,40.1,33.0,90,48,16,30.80,30.16,12,4,20,0.00
2013-10-4,83.0,63.3,43.0,54.8,40.0,26.3,95,51,13,30.82,30.19,10,3,17,0.00
2013-10-5,80.0,60.2,42.0,39.2,30.3,21.7,84,38,16,30.93,30.49,8,4,13,0.00
2013-10-6,84.0,59.6,34.0,30.1,25.0,20.5,69,32,10,31.00,30.49,10,3,17,0.00
2013-10-7,85.0,59.6,34.0,39.7,31.0,25.0,79,41,13,30.95,30.33,9,2,14,0.00
2013-10-8,84.0,64.0,42.0,40.2,34.7,28.9,68,38,18,30.79,30.06,10,4,17,0.00
2013-10-9,80.0,63.4,44.0,49.0,37.5,31.1,72,42,19,30.79,30.28,16,6,29,0.00
2013-10-10,72.0,60.0,40.0,50.5,42.5,32.4,91,56,24,30.87,30.24,17,7,32,0.00
2013-10-11,78.0,55.1,37.0,45.5,37.4,30.5,100,60,21,30.90,30.34,8,3,14,0.00
2013-10-12,83.0,58.2,36.0,41.7,35.2,27.3,90,51,14,30.92,30.35,12,3,21,0.00
2013-10-13,84.0,65.3,43.0,49.9,42.6,35.8,84,49,20,30.92,30.34,15,6,23,0.00
2013-10-14,78.0,64.4,50.0,56.8,47.3,38.5,93,57,30,30.87,30.49,9,3,15,0.00
2013-10-15,80.0,61.4,39.0,47.1,37.9,26.9,84,46,24,30.84,30.39,10,4,17,0.00
2013-10-16,77.0,54.0,31.0,32.6,24.8,15.5,88,40,11,31.02,30.55,8,3,20,0.00
2013-10-17,79.0,52.0,28.0,39.2,22.5,13.8,72,39,9,31.56,29.51,9,3,15,0.00
2013-10-18,76.0,46.9,35.0,40.5,24.7,21.1,61,47,13,31.57,29.51,7,2,17,0.00
2013-10-19,81.0,56.2,41.0,46.0,24.2,15.9,50,35,9,31.63,30.90,7,3,12,0.00
2013-10-20,79.0,56.9,42.0,42.1,23.9,11.1,49,35,8,31.59,30.85,9,3,16,0.00
2013-10-21,81.0,56.0,39.0,43.4,24.8,18.4,49,36,10,31.62,30.93,6,2,12,0.00
2013-10-22,82.0,57.5,39.0,44.5,26.5,19.3,51,36,10,31.69,30.93,9,3,14,0.00
2013-10-23,84.0,62.4,40.0,53.5,34.7,23.3,55,39,17,31.62,30.89,9,2,13,0.00
2013-10-24,50.0,44.4,44.0,33.1,31.8,30.3,62,61,52,31.37,30.92,2,0,4,0.00
2013-10-25,80.0,57.7,42.0,28.4,25.3,22.9,48,31,13,30.29,30.03,7,2,12,0.00
2013-10-26,82.0,56.6,34.0,31.2,26.3,21.5,69,37,11,30.35,30.07,7,2,13,0.00
2013-10-27,82.0,59.4,39.1,36.8,29.8,21.4,67,37,15,30.27,29.89,8,2,13,0.00
2013-10-28,76.0,59.8,37.0,35.0,26.9,16.9,65,32,11,30.15,29.92,16,6,26,0.00
2013-10-29,76.0,60.2,43.0,38.1,31.2,26.1,59,35,18,30.17,29.93,13,5,21,0.00
2013-10-30,72.0,54.7,33.0,44.4,34.7,26.3,81,50,20,30.26,29.94,15,6,23,0.00
2013-10-31,74.0,47.1,25.0,32.8,22.0,6.0,97,47,11,30.33,30.03,8,3,12,0.00
2013-11-1,76.0,47.8,23.0,26.3,19.6,10.4,75,39,12,30.38,30.09,7,3,12,0.00
2013-11-2,79.4,52.5,27.0,26.0,19.7,13.8,74,35,10,30.36,29.98,8,2,13,0.00
2013-11-3,76.0,58.2,43.0,53.2,41.4,19.8,99,58,26,30.11,29.85,15,4,24,0.04
2013-11-4,75.0,55.8,34.0,52.3,40.4,34.0,100,62,28,30.10,29.81,13,4,20,0.00
2013-11-5,69.0,54.9,41.0,45.8,37.0,30.1,89,55,25,30.30,29.98,13,5,18,0.00
2013-11-6,72.0,49.1,28.0,36.3,25.7,15.2,91,46,17,30.45,30.21,8,3,13,0.00
2013-11-7,75.0,49.5,25.0,30.4,23.5,14.8,74,41,18,30.48,30.14,9,3,16,0.00
2013-11-8,77.0,53.0,35.0,37.9,30.7,25.1,72,47,21,30.34,30.03,7,3,12,0.00
2013-11-9,79.0,53.1,31.0,37.4,31.9,26.4,87,51,21,30.34,30.06,9,2,13,0.00
2013-11-10,82.0,56.8,36.0,38.6,33.4,29.5,81,47,20,30.33,30.05,8,3,12,0.00
2013-11-11,82.0,59.0,39.0,40.0,35.6,28.2,76,47,21,30.32,30.04,9,4,15,0.00
2013-11-12,79.0,58.6,41.6,45.1,39.7,32.2,72,52,29,30.40,30.19,12,4,25,0.00
2013-11-13,72.9,55.0,41.0,44.9,40.8,35.6,87,61,35,30.41,30.11,8,4,12,0.00
2013-11-14,77.3,52.6,35.0,45.2,34.2,21.6,100,57,18,30.26,29.97,9,3,16,0.00
2013-11-15,69.0,56.8,35.0,52.4,43.9,24.0,84,63,42,30.15,29.81,15,6,22,0.00
2013-11-16,71.0,58.1,39.0,51.1,42.6,36.3,91,60,29,30.13,29.85,16,7,29,0.00
2013-11-17,73.0,52.5,33.0,50.2,39.5,33.0,100,67,30,30.24,30.03,9,2,15,0.00
2013-11-18,75.0,55.1,37.0,50.3,37.9,28.9,82,56,29,30.28,30.03,10,3,16,0.00
2013-11-19,76.0,52.0,30.0,44.6,32.1,23.7,95,53,16,30.25,29.90,9,2,12,0.00
2013-11-20,75.0,53.4,32.0,42.1,30.3,22.9,78,46,16,30.13,29.85,10,3,20,0.00
2013-11-21,71.2,54.1,34.0,50.2,40.8,25.9,90,63,36,30.16,29.95,14,4,22,0.00
2013-11-22,68.0,54.6,44.0,58.4,48.2,39.8,100,81,49,30.13,29.97,13,5,20,0.19
2013-11-23,49.0,44.1,40.0,43.9,41.3,39.4,99,90,72,30.24,30.12,12,6,21,0.22
2013-11-24,52.0,40.2,32.0,43.1,38.2,32.0,100,93,65,30.32,30.17,8,4,16,0.00
2013-11-25,53.0,36.2,24.0,43.0,33.3,24.0,100,91,55,30.42,30.20,10,4,16,0.00
2013-11-26,59.0,40.3,23.0,45.5,29.0,21.4,100,70,33,30.50,30.25,9,2,17,0.01
2013-11-27,58.0,42.1,29.0,31.9,26.4,21.4,91,57,30,30.41,30.14,7,3,10,0.00
2013-11-28,67.0,42.4,22.0,36.6,30.5,22.0,100,70,30,30.35,30.07,7,3,12,0.00
2013-11-29,70.0,47.8,30.0,42.1,36.3,30.0,100,71,32,30.39,30.13,10,3,15,0.00
2013-11-30,71.0,49.2,34.0,45.5,38.7,33.7,100,73,32,30.36,30.12,6,2,9,0.00
2013-12-1,66.7,52.0,37.0,44.3,41.1,35.2,95,69,39,30.33,30.17,7,2,10,0.00
2013-12-2,74.0,47.8,27.0,42.7,28.3,13.0,100,59,11,30.33,29.97,7,2,12,0.00
2013-12-3,72.0,47.4,24.0,42.4,29.4,15.0,98,60,12,30.17,29.82,12,3,17,0.00
2013-12-4,67.5,54.3,41.0,45.5,35.4,21.2,93,55,18,30.03,29.84,20,8,29,0.00
2013-12-5,50.0,43.8,31.0,47.9,38.6,31.0,100,84,53,30.22,29.97,10,5,18,0.14
2013-12-6,52.0,35.0,21.0,38.2,28.9,21.0,100,83,42,30.31,30.11,8,3,13,0.01
2013-12-7,60.0,36.9,18.0,41.4,22.4,11.8,100,66,16,30.27,29.97,10,3,16,0.00
2013-12-8,56.0,39.8,23.0,39.4,28.7,20.4,100,68,35,30.27,30.04,10,3,20,0.00
2013-12-9,56.0,36.9,21.0,41.5,24.8,14.9,100,68,26,30.48,30.17,9,3,15,0.00
2013-12-10,56.0,34.9,17.0,23.0,17.8,14.4,100,58,23,30.48,30.16,8,5,14,0.00
2013-12-11,68.0,43.1,23.0,40.7,25.2,17.6,85,53,27,30.42,30.17,7,4,13,0.00
2013-12-12,63.7,45.2,34.0,47.6,36.1,24.9,100,72,51,30.40,30.13,9,3,15,0.02
2013-12-13,61.0,40.4,25.0,50.7,32.5,25.0,100,79,29,30.34,30.10,9,2,13,0.01
2013-12-14,61.0,37.6,21.0,38.2,24.6,21.0,100,68,23,30.50,30.23,9,3,15,0.00
2013-12-15,64.0,39.6,18.0,36.3,23.0,18.0,100,61,19,30.53,30.23,8,3,12,0.00
2013-12-16,72.0,43.8,24.0,30.1,23.8,20.3,94,54,15,30.45,30.18,7,4,12,0.00
2013-12-17,75.0,46.3,27.0,31.1,25.5,22.1,87,53,16,30.48,30.16,7,4,13,0.00
2013-12-18,64.0,45.7,31.0,30.1,25.4,22.3,82,50,21,30.36,30.04,7,3,10,0.00
2013-12-19,65.0,48.3,31.0,30.7,22.9,15.7,76,41,17,30.09,29.82,18,5,25,0.00
2013-12-20,48.0,40.5,29.0,46.1,34.4,20.1,96,79,52,29.98,29.78,12,4,17,0.11
2013-12-21,46.0,40.3,35.0,39.4,35.3,30.2,97,83,54,30.14,29.96,10,5,17,0.03
2013-12-22,55.0,38.2,25.0,45.8,32.1,25.0,100,83,39,30.45,30.15,7,2,10,0.01
2013-12-23,61.0,37.3,20.0,41.3,26.5,20.0,100,72,27,30.53,30.29,7,4,12,0.00
2013-12-24,64.0,36.9,18.0,32.0,25.3,18.0,100,72,26,30.50,30.15,7,3,10,0.00
2013-12-25,64.0,39.2,20.0,36.3,26.2,20.0,100,68,25,30.48,30.18,7,3,12,0.00
2013-12-26,59.0,35.8,17.0,32.8,23.3,17.0,100,68,27,30.49,30.20,9,4,15,0.00
2013-12-27,63.0,36.9,16.0,35.2,21.6,16.0,100,64,21,30.46,30.18,6,3,15,0.00
2013-12-28,60.0,38.7,17.0,29.2,24.3,17.0,100,62,29,30.39,30.04,9,3,15,0.00
2013-12-29,64.0,44.0,26.0,32.4,25.7,20.7,95,55,21,30.34,30.00,8,3,12,0.00
2013-12-30,64.0,39.2,21.0,32.9,22.2,16.9,100,59,18,30.47,30.18,6,3,10,0.00
2013-12-31,67.0,38.4,18.0,28.3,21.8,17.5,100,61,19,30.48,30.14,7,3,10,0.00
2014-1-1,70.0,40.5,18.0,27.9,21.9,16.9,100,57,17,30.37,30.07,6,3,9,0.00
2014-1-2,69.0,42.9,21.0,25.7,22.7,17.9,94,53,18,30.42,30.12,8,3,13,0.00